User: anonymous   Login
Location: Fort Wayne
(41.1310°N, 85.1290°W)
Time: 21:52:31
(UTC-04:00)
Language:

Cosmos 2056 Rocket - Orbit

View from above orbital plane
View from above orbital plane
View from above satellite
View from above satellite

Ground track
Ground track

The orbit data is extracted from the following two-line orbital elements,

1 20433U 90004B   16240.88701425 +.00000030 +00000-0 +19231-4 0  9996
2 20433 074.0369 174.5811 0040643 013.7252 018.0471 14.35946131392829
Epoch (UTC): 27 August 2016 21:17:18
Eccentricity: 0.0040643
inclination: 74.0369°
perigee height: 743 km
apogee height: 801 km
right ascension of ascending node: 174.5811°
argument of perigee: 13.7252°
revolutions per day: 14.35946131
mean anomaly at epoch: 18.0471°
orbit number at epoch: 39282

The dashed part of the orbit path shows where the satellite is in the earth's shadow,  

DLR